Tracking 30923 objects as of 1-Jul-2025
HD Live streaming from Space Station
objects crossing your sky now

ARIANE 5 R/B

Track ARIANE 5 R/B now!


NORAD ID: 40273
Int'l Code: 2014-062C
Perigee: 220.0 km
Apogee: 31,261.1 km
Inclination: 6.0 °
Period: 545.4 minutes
Semi major axis: 22111 km
RCS: Unknown
Launch date: October 16, 2014
Source: France (FR)
Launch site: FRENCH GUIANA (FRGUI)

Note: This is a ROCKET BODY
Your satellite tracking list
COSMOS 2251 DEB
Track 1 satellite(s)




NASA's NSSDC Master Catalog

Two Line Element Set (TLE):
1 40273U 14062C   25180.90477753  .00012096  00000-0  11643-2 0  9992
2 40273   6.0154 225.6619 7019192  38.1726 355.0018  2.64042574 94639
Source of the keplerian elements: AFSPC